[[{"header":{"parameterUnit":"m.s-1","parameterCategory":1,"la1":30.2991,"la2":30.254,"lo1":-89.0895,"lo2":-89.0444,"dy":0.0017,"dx":0.0017,"nx":28,"ny":28,"refTime":"2025-05-17T03:00:00:Z","depth":0,"parameterNumber":2,"parameterNumberName":"U-component_of_WINDS"},"data":[0,0,0,0,0,0,0,0,0,0,0,0,0,0,0,0,0,0,0,0,0,0,0,0,0,0,0,0,0,0,0,0,0,0,0,0,0,0,0,0,0,0,0,0,0,0,0,0,0,0,0,0,0,0,0,0,0,0,2.5549,2.555,0,2.5662,2.5664,2.5665,2.5686,2.5685,2.5684,2.5683,2.58,2.5804,2.5808,0,0,0,0,0,0,0,0,0,0,0,0,0,2.5349,2.5353,2.5549,2.555,2.5551,2.5662,2.5664,2.5665,2.5686,2.5685,2.5684,2.5682,2.5798,2.5803,2.5808,0,0,0,0,0,0,0,0,0,0,0,0,0,2.5446,2.5354,2.5548,2.5575,2.5579,2.5662,2.5664,2.5666,2.5686,2.5685,2.5683,2.5682,2.5797,2.5803,2.5809,2.5873,0,0,2.5827,2.5829,0,0,0,0,0,0,0,0,2.5441,2.5454,2.557,2.5573,2.5577,2.5658,2.5636,2.5735,2.5686,2.5645,2.5683,2.5681,2.5754,2.5763,2.5788,2.5879,2.5884,2.5827,2.5831,2.5833,2.5835,0,0,0,0,0,0,0,2.5434,2.5449,2.5594,2.5571,2.5576,2.5581,2.5593,2.5655,2.5706,2.5649,2.565,2.5664,2.5756,2.5782,2.5791,2.5886,2.5827,2.5832,2.5836,2.5838,2.6034,2.6036,0,0,0,0,0,0,2.5423,2.5443,2.559,2.5597,2.5504,2.5586,2.56,2.5634,2.5705,2.5715,2.5665,2.5664,2.5772,2.5784,2.5795,2.5874,2.5833,2.5839,2.5842,2.6033,2.6034,2.6036,0,0,0,0,0,0,2.5418,2.5436,2.5585,2.5521,2.554,2.5591,2.5629,2.5637,2.5663,2.5717,2.5727,2.5682,2.5772,2.5786,2.5853,2.5879,2.5842,2.5847,2.6031,2.6033,2.6035,2.6035,0,0,0,0,0,0,2.5412,2.5434,2.5459,2.5521,2.5543,2.5642,2.5631,2.564,2.5673,2.5674,2.5736,2.5745,2.5772,2.5844,2.5859,2.5886,2.5852,2.6029,2.6032,2.6035,2.6033,2.6037,2.604,0,0,0,0,0,2.5405,2.5455,2.546,2.5478,2.5576,2.5644,2.5656,2.5686,2.5675,2.5701,2.5736,2.5743,2.5874,2.5851,2.5868,2.5897,2.6027,2.6031,2.6034,2.6031,2.6036,2.604,0,0,0,0,0,0,2.5395,2.5463,2.547,2.5541,2.5586,2.5647,2.568,2.569,2.574,2.5738,2.5772,2.5786,2.5851,2.5881,2.5855,2.5963,2.595,2.5957,2.5941,2.5946,2.595,2.5941,2.5857,0,0,0,0,0,2.5401,2.545,2.5507,2.5564,2.5587,2.5629,2.566,2.5679,2.5727,2.5746,2.5786,2.5832,2.5883,2.5917,2.5967,2.6037,2.605,2.6065,2.6069,2.6072,2.6078,2.6116,2.6123,2.6048,2.6048,2.6048,0,0,2.5414,2.5457,2.5486,2.5563,2.5601,2.565,2.5645,2.5699,2.5736,2.5754,2.5819,2.585,2.5904,2.5973,2.6005,2.5999,2.6101,2.6077,2.6079,2.6083,2.612,2.6127,2.6134,2.6051,2.605,2.605,0,0,2.5463,2.5501,2.5552,2.5589,2.5645,2.5673,2.5685,2.5744,2.5765,2.5831,2.5846,2.589,2.5978,2.6016,2.6046,2.6108,2.6117,2.6123,2.6143,2.618,2.6186,2.6191,2.6212,2.622,2.6129,2.6129,2.6129,0,2.5472,2.5547,2.5577,2.563,2.5663,2.5681,2.5733,2.5767,2.5837,2.5859,2.5852,2.5962,2.6,2.6077,2.6092,2.6116,2.6131,2.6116,2.6183,2.6188,2.6194,2.6214,2.6222,2.6129,2.6129,2.6129,2.6129,0,2.5555,2.5607,2.5642,2.5708,2.5745,2.5797,2.5834,2.5868,2.5883,2.5911,2.5978,2.6024,2.6083,2.6103,2.6118,2.6182,2.6176,2.6176,2.6163,2.6201,2.6221,2.6229,2.613,2.613,2.613,2.613,0,0,2.5601,2.5682,2.5695,2.5724,2.5787,2.5828,2.588,2.5937,2.5965,2.6012,2.6057,2.613,2.6129,2.6164,2.6184,2.6216,2.6261,2.6211,2.6213,2.6218,2.6332,2.6332,2.634,2.6267,2.6268,2.627,2.6327,0,2.5657,2.5751,2.5779,2.5857,2.5905,2.5922,2.5968,2.6011,2.6039,2.6083,2.6114,2.6165,2.6161,2.6182,2.6214,2.6248,2.6284,2.6245,2.6308,2.631,2.6293,2.6351,2.6351,2.6403,2.6335,2.6337,2.6338,0,2.5735,2.5783,2.5865,2.5921,2.5942,2.5982,2.6037,2.6079,2.6128,2.6146,2.6184,2.6201,2.6255,2.6239,2.6314,2.6287,2.6314,2.6335,2.6338,2.6344,2.6325,2.6358,2.6421,2.6428,2.635,2.6349,2.6348,0,2.5759,2.5844,2.5904,2.5929,2.5996,2.6023,2.6052,2.61,2.6132,2.618,2.6201,2.6254,2.6283,2.6324,2.6355,2.634,2.6427,2.6414,2.6443,2.6442,2.646,2.6458,2.6527,2.6479,2.6479,2.6478,2.6478,0,2.5818,2.5868,2.5916,2.5953,2.6009,2.604,2.6095,2.6125,2.6167,2.6209,2.6228,2.6268,2.6306,2.6351,2.6375,2.6433,2.6446,2.6462,2.6468,2.646,2.6458,2.6478,2.6475,2.648,2.648,2.648,2.6479,0,2.5855,2.5889,2.5956,2.6012,2.6028,2.6067,2.6115,2.6152,2.618,2.6233,2.6248,2.6292,2.6345,2.638,2.6448,2.6465,2.6528,2.6533,2.6511,2.6514,2.654,2.6537,2.6624,2.6636,2.658,2.6581,2.6581,0,2.589,2.5928,2.5989,2.6019,2.6048,2.6096,2.6128,2.616,2.6194,2.6252,2.6281,2.6335,2.6381,2.6465,2.6503,2.6555,2.6561,2.6588,2.6569,2.656,2.6561,2.6558,2.6561,2.6591,2.6591,2.6592,2.6592,0,2.5948,2.5963,2.6009,2.6062,2.61,2.6143,2.6186,2.6209,2.6249,2.6285,2.634,2.6375,2.6444,2.6497,2.6553,2.6582,2.6594,2.6598,2.6607,2.6599,2.6585,2.6592,2.6518,2.6595,2.6595,2.6595,2.6595,2.6595,2.5985,2.6019,2.6067,2.6118,2.6153,2.6192,2.6229,2.6261,2.6307,2.6366,2.6382,2.6438,2.6485,2.6561,2.6591,2.6636,2.6632,2.6646,2.6649,2.6652,2.6652,2.6578,2.6646,2.6646,2.6646,2.6646,2.6646,0,2.6043,2.6074,2.6121,2.618,2.622,2.6226,2.6274,2.6307,2.6356,2.6399,2.6443,2.6505,2.6556,2.6598,2.6651,2.6679,2.6685,2.6692,2.669,2.6696,2.6652,2.6638,2.6685,2.6685,2.6685,2.6685,2.6685,2.6685,2.6078,2.6137,2.6157,2.6233,2.6264,2.6319,2.6346,2.6382,2.6416,2.6484,2.6527,2.6553,2.6596,2.6652,2.6699,2.671,2.6728,2.6734,2.6745,2.6704,2.6699,2.6695,2.6682,2.6738,2.6738,2.6786,2.6786,2.6786]},{"header":{"parameterUnit":"m.s-1","parameterCategory":1,"la1":30.2991,"la2":30.254,"lo1":-89.0895,"lo2":-89.0444,"dy":0.0017,"dx":0.0017,"nx":28,"ny":28,"refTime":"2025-05-17T03:00:00:Z","depth":0,"parameterNumber":3,"parameterNumberName":"V-component_of_WINDS"},"data":[0,0,0,0,0,0,0,0,0,0,0,0,0,0,0,0,0,0,0,0,0,0,0,0,0,0,0,0,0,0,0,0,0,0,0,0,0,0,0,0,0,0,0,0,0,0,0,0,0,0,0,0,0,0,0,0,0,0,2.7805,2.7805,0,2.7864,2.7864,2.7865,2.787,2.7869,2.7868,2.7868,2.7924,2.7926,2.7929,0,0,0,0,0,0,0,0,0,0,0,0,0,2.7692,2.7694,2.7805,2.7805,2.7806,2.7864,2.7864,2.7865,2.787,2.7869,2.7868,2.7867,2.7924,2.7926,2.7929,0,0,0,0,0,0,0,0,0,0,0,0,0,2.7745,2.7695,2.7805,2.7815,2.7817,2.7863,2.7864,2.7865,2.787,2.7869,2.7868,2.7867,2.7923,2.7926,2.7929,2.7968,0,0,2.7939,2.794,0,0,0,0,0,0,0,0,2.7742,2.7749,2.7813,2.7815,2.7817,2.7858,2.7846,2.79,2.787,2.785,2.7868,2.7867,2.7903,2.7908,2.7921,2.797,2.7973,2.7939,2.7941,2.7942,2.7943,0,0,0,0,0,0,0,2.7738,2.7747,2.7828,2.7814,2.7816,2.7816,2.7823,2.7856,2.7881,2.7851,2.7852,2.7859,2.7904,2.7918,2.7922,2.7974,2.7939,2.7942,2.7944,2.7945,2.8058,2.8059,0,0,0,0,0,0,2.7733,2.7744,2.7826,2.783,2.7776,2.7819,2.7826,2.7846,2.7881,2.7885,2.786,2.7859,2.7913,2.7918,2.7924,2.7972,2.7942,2.7945,2.7947,2.8057,2.8058,2.8059,0,0,0,0,0,0,2.7731,2.7741,2.7824,2.7787,2.7797,2.7822,2.7844,2.7848,2.7862,2.7887,2.7891,2.787,2.7912,2.792,2.7957,2.7974,2.7947,2.795,2.8055,2.8057,2.8059,2.8068,0,0,0,0,0,0,2.7728,2.774,2.7755,2.7787,2.7799,2.7857,2.7845,2.7849,2.7868,2.7867,2.7897,2.7901,2.7912,2.7952,2.796,2.7978,2.7952,2.8054,2.8056,2.8058,2.8066,2.807,2.8073,0,0,0,0,0,2.7724,2.7755,2.7756,2.7766,2.782,2.7858,2.7865,2.7877,2.7869,2.7884,2.7901,2.79,2.7971,2.7956,2.7965,2.7984,2.8053,2.8056,2.8058,2.8065,2.8069,2.8073,0,0,0,0,0,0,2.7723,2.7759,2.7761,2.7804,2.7828,2.7859,2.7879,2.7881,2.7907,2.7906,2.7919,2.7926,2.7963,2.7977,2.796,2.8023,2.8011,2.8015,2.8013,2.8017,2.802,2.8016,2.7955,0,0,0,0,0,2.7728,2.7757,2.7786,2.7821,2.7833,2.7854,2.7871,2.7879,2.7904,2.7913,2.7932,2.7956,2.7983,2.8001,2.8027,2.8068,2.8075,2.8085,2.8088,2.8091,2.8095,2.8118,2.8123,2.8067,2.8067,2.8067,0,0,2.7738,2.7761,2.7779,2.7822,2.7841,2.787,2.7862,2.7893,2.7914,2.7918,2.7955,2.7969,2.7996,2.8036,2.8054,2.8048,2.8111,2.8094,2.8096,2.8099,2.8121,2.8126,2.8131,2.8069,2.8069,2.8069,0,0,2.7772,2.7792,2.7824,2.7844,2.7875,2.7888,2.7896,2.7926,2.7936,2.7974,2.7977,2.8002,2.8049,2.8068,2.8084,2.8125,2.8126,2.8133,2.815,2.8172,2.8177,2.8181,2.8196,2.8201,2.8136,2.8137,2.8137,0,2.7781,2.7826,2.784,2.7871,2.7889,2.7895,2.7927,2.7945,2.7982,2.7994,2.7987,2.8047,2.8065,2.8109,2.812,2.8132,2.8141,2.813,2.8175,2.8179,2.8183,2.8198,2.8203,2.8137,2.8137,2.8137,2.8137,0,2.7835,2.7866,2.7887,2.7925,2.7946,2.7977,2.7995,2.8014,2.802,2.8033,2.8072,2.8094,2.8125,2.8136,2.8141,2.8181,2.8177,2.8172,2.816,2.8189,2.8203,2.8208,2.8138,2.8138,2.8138,2.8138,0,0,2.787,2.7915,2.7923,2.794,2.7974,2.7998,2.8029,2.8061,2.8077,2.8102,2.8128,2.8168,2.8164,2.8182,2.819,2.8209,2.8241,2.8202,2.8203,2.8209,2.8286,2.829,2.8296,2.8241,2.8242,2.8243,2.8284,0,2.7908,2.7966,2.7979,2.8028,2.8056,2.8062,2.8089,2.8112,2.8126,2.8151,2.8165,2.8194,2.8187,2.8198,2.8217,2.8233,2.8256,2.823,2.8265,2.8266,2.8259,2.8303,2.8307,2.8345,2.8289,2.829,2.8291,0,2.796,2.7988,2.804,2.8071,2.8084,2.8108,2.8138,2.8163,2.8189,2.8197,2.8218,2.8223,2.8255,2.8241,2.8284,2.8266,2.8281,2.8291,2.8292,2.8297,2.8281,2.8309,2.8357,2.8363,2.83,2.8299,2.8298,0,2.7982,2.8032,2.807,2.8084,2.8121,2.8138,2.8153,2.8179,2.8197,2.8223,2.8235,2.8264,2.828,2.8302,2.8315,2.8303,2.8357,2.8344,2.8365,2.8364,2.8376,2.8375,2.8428,2.8385,2.8385,2.8385,2.8384,0,2.8023,2.8055,2.808,2.8104,2.8139,2.8154,2.8188,2.8203,2.8226,2.8251,2.8257,2.828,2.8296,2.8321,2.8331,2.8366,2.8373,2.838,2.8382,2.838,2.8379,2.8391,2.8388,2.8386,2.8386,2.8385,2.8385,0,2.8053,2.8072,2.8113,2.8145,2.8154,2.8178,2.8205,2.8227,2.8241,2.8273,2.8281,2.8303,2.8333,2.8348,2.8385,2.8392,2.8431,2.8431,2.8423,2.8424,2.8444,2.8442,2.8506,2.8515,2.8465,2.8466,2.8466,0,2.8079,2.8104,2.8139,2.8157,2.8174,2.8203,2.8222,2.8237,2.8257,2.8289,2.8307,2.8338,2.8363,2.8411,2.8429,2.8458,2.8459,2.848,2.8463,2.846,2.846,2.8459,2.8462,2.8483,2.8483,2.8483,2.8484,0,2.8123,2.8131,2.816,2.8192,2.8215,2.824,2.8265,2.8279,2.8298,2.8319,2.8352,2.8372,2.841,2.8441,2.8471,2.8485,2.8488,2.8489,2.8495,2.8493,2.8488,2.8491,2.8431,2.8487,2.8487,2.8487,2.8486,2.8486,2.8152,2.8175,2.8203,2.8235,2.8255,2.8278,2.8301,2.8318,2.8346,2.838,2.8386,2.842,2.8445,2.8486,2.8501,2.8527,2.8523,2.8532,2.8534,2.8536,2.8538,2.8483,2.8533,2.8533,2.8532,2.8532,2.8532,0,2.8197,2.8216,2.8245,2.828,2.8305,2.8306,2.8333,2.8354,2.8384,2.8408,2.8433,2.847,2.85,2.852,2.855,2.8567,2.8569,2.8574,2.8573,2.8577,2.854,2.8532,2.8572,2.8572,2.8572,2.8572,2.8572,2.8572,2.8223,2.8262,2.8273,2.8321,2.8339,2.8374,2.839,2.8411,2.843,2.8471,2.8497,2.851,2.8533,2.8564,2.8591,2.8596,2.8607,2.8613,2.8618,2.8583,2.8579,2.8575,2.8568,2.8615,2.8615,2.8653,2.8653,2.8653]}]]